Colby, KS

3:05 PM CST on February 18, 2018 (GMT -0600)
Shaltz

Weather History for KCBK - February, 2014

Change the Weather History Date:

Wednesday, February 26, 2014

  Actual Average (KGLD) Record (KGLD)
Temperature  
Mean Temperature 17 °F -  
Max Temperature 41 °F 49 °F 71 °F (1896)
Min Temperature -7 °F 23 °F -6 °F (1960)
Degree Days  
Heating Degree Days 48    
Moisture  
Dew Point 11 °F    
Average Humidity 80    
Maximum Humidity 100    
Minimum Humidity 41    
Precipitation  
Precipitation 0.00 in - - ()
Sea Level Pressure  
Sea Level Pressure 30.13 in    
Wind  
Wind Speed 8 mph (West)    
Max Wind Speed 17 mph    
Max Gust Speed 24 mph    
Visibility 10 miles    
Events      
Averages and records for this station are not official NWS values.
T = Trace of Precipitation, MM = Missing Value Source: NWS Daily Summary

Daily Weather History Graph

Daily Weather History Graph

Search for Another Location

Airport or City:

Trip Planner

Search our weather history database for the weather conditions in past years. The results will help you decide how hot, cold, wet, or windy it might be!

Date:

Astronomy

Feb. 26, 2014 Rise Set
Actual Time 7:21 AM CST 6:33 PM CST
Civil Twilight 6:54 AM CST 7:00 PM CST
Nautical Twilight 6:23 AM CST 7:31 PM CST
Astronomical Twilight 5:52 AM CST 8:02 PM CST
Moon 5:08 AM CST (2/26) 3:50 PM CST (2/26)
Length of Visible Light 12h 06m
Length of Day
11h 12m
Waning Crescent, 10% of the Moon is Illuminated
Feb 26
Waning Crescent
Mar 1
New
Mar 8
First Quarter
Mar 16
Full
Mar 23
Last Quarter

Hourly Weather History & Observations

Time (CST) Temp. Windchill Dew Point Humidity Pressure Visibility Wind Dir Wind Speed Gust Speed Precip Events Conditions
12:15 AM 5.0 °F -6.9 °F 3.2 °F 92% 30.41 in 10.0 mi NW 6.9 mph - N/A   Clear
12:30 AM 5.0 °F -9.1 °F 3.2 °F 92% 30.40 in 10.0 mi NW 9.2 mph - N/A   Clear
12:55 AM 5.0 °F -9.1 °F 5.0 °F 100% 30.38 in 10.0 mi NW 9.2 mph - N/A   Clear
1:15 AM 3.2 °F -11.3 °F 3.2 °F 100% 30.38 in 7.0 mi NW 9.2 mph - N/A   Clear
1:35 AM 5.0 °F -9.1 °F 3.2 °F 92% 30.37 in 7.0 mi NW 9.2 mph - N/A   Clear
1:55 AM 1.4 °F -6.2 °F -0.4 °F 92% 30.37 in 5.0 mi West 3.5 mph - N/A   Clear
2:15 AM -2.2 °F -12.5 °F -4.0 °F 92% 30.36 in 7.0 mi WNW 4.6 mph - N/A   Clear
2:35 AM 1.4 °F -6.2 °F -0.4 °F 92% 30.34 in 5.0 mi West 3.5 mph - N/A   Scattered Clouds
2:55 AM -2.2 °F -12.5 °F -4.0 °F 92% 30.32 in 7.0 mi West 4.6 mph - N/A   Clear
3:15 AM -5.8 °F -18.4 °F -7.6 °F 92% 30.29 in 10.0 mi SW 5.8 mph - N/A   Clear
3:35 AM -5.8 °F -18.4 °F -9.4 °F 84% 30.27 in 10.0 mi West 5.8 mph - N/A   Clear
3:55 AM -5.8 °F -16.7 °F -9.4 °F 84% 30.26 in 10.0 mi WSW 4.6 mph - N/A   Clear
4:15 AM -5.8 °F -18.4 °F -7.6 °F 92% 30.25 in 7.0 mi SW 5.8 mph - N/A   Clear
4:35 AM -5.8 °F -16.7 °F -7.6 °F 92% 30.24 in 10.0 mi WSW 4.6 mph - N/A   Clear
4:55 AM -5.8 °F -14.5 °F -9.4 °F 84% 30.22 in 10.0 mi WSW 3.5 mph - N/A   Clear
5:15 AM -7.6 °F -20.6 °F -9.4 °F 92% 30.21 in 10.0 mi SW 5.8 mph - N/A   Clear
5:35 AM -4.0 °F -16.3 °F -5.8 °F 92% 30.20 in 10.0 mi WSW 5.8 mph - N/A   Clear
5:55 AM -4.0 °F -17.8 °F -7.6 °F 85% 30.21 in 10.0 mi WSW 6.9 mph - N/A   Clear
6:15 AM -5.8 °F -19.9 °F -7.6 °F 92% 30.20 in 10.0 mi WSW 6.9 mph - N/A   Clear
6:35 AM -5.8 °F -16.7 °F -7.6 °F 92% 30.20 in 10.0 mi WSW 4.6 mph - N/A   Clear
6:55 AM -4.0 °F -14.6 °F -5.8 °F 92% 30.20 in 10.0 mi SW 4.6 mph - N/A   Clear
7:15 AM -5.8 °F -16.7 °F -7.6 °F 92% 30.19 in 5.0 mi SW 4.6 mph - N/A   Clear
7:35 AM -4.0 °F -14.6 °F -5.8 °F 92% 30.18 in 10.0 mi SW 4.6 mph - N/A   Clear
7:55 AM -2.2 °F -12.5 °F -4.0 °F 92% 30.18 in 10.0 mi SW 4.6 mph - N/A   Clear
8:15 AM 1.4 °F -8.3 °F -0.4 °F 92% 30.18 in 10.0 mi SW 4.6 mph - N/A   Clear
8:35 AM 5.0 °F -4.1 °F 3.2 °F 92% 30.18 in 10.0 mi SSW 4.6 mph - N/A   Clear
8:55 AM 8.6 °F - 6.8 °F 92% 30.18 in 10.0 mi Calm Calm - N/A   Clear
9:15 AM 10.4 °F 2.2 °F 10.4 °F 100% 30.17 in 10.0 mi SSW 4.6 mph - N/A   Clear
9:35 AM 14.0 °F 2.0 °F 12.2 °F 93% 30.17 in 10.0 mi SSW 9.2 mph - N/A   Clear
9:55 AM 14.0 °F 2.0 °F 14.0 °F 100% 30.17 in 10.0 mi SW 9.2 mph - N/A   Clear
10:15 AM 17.6 °F 5.0 °F 17.6 °F 100% 30.15 in 10.0 mi SW 11.5 mph - N/A   Clear
10:35 AM 19.4 °F 7.2 °F 15.8 °F 86% 30.14 in 10.0 mi SW 11.5 mph - N/A   Clear
10:55 AM 21.2 °F 8.9 °F 17.6 °F 86% 30.14 in 10.0 mi SW 12.7 mph - N/A   Clear
11:15 AM 23.0 °F 12.4 °F 19.4 °F 86% 30.13 in 10.0 mi SW 10.4 mph - N/A   Clear
11:35 AM 26.6 °F 15.2 °F 19.4 °F 74% 30.13 in 10.0 mi SW 13.8 mph - N/A   Clear
11:55 AM 26.6 °F 16.2 °F 21.2 °F 80% 30.13 in 10.0 mi WSW 11.5 mph - N/A   Clear
12:15 PM 28.4 °F 16.6 °F 23.0 °F 80% 30.09 in 10.0 mi SW 16.1 mph - N/A   Clear
12:35 PM 28.4 °F 17.0 °F 23.0 °F 80% 30.08 in 10.0 mi WSW 15.0 mph - N/A   Clear
12:55 PM 30.2 °F 19.3 °F 24.8 °F 80% 30.07 in 10.0 mi SW 15.0 mph 18.4 mph N/A   Clear
1:15 PM 32.0 °F 22.5 °F 26.6 °F 80% 30.05 in 10.0 mi WSW 12.7 mph - N/A   Clear
1:35 PM 33.8 °F 23.2 °F 28.4 °F 81% 30.04 in 10.0 mi WSW 17.3 mph - N/A   Clear
1:55 PM 35.6 °F 26.2 °F 30.2 °F 81% 30.02 in 10.0 mi West 15.0 mph 20.7 mph N/A   Clear
2:15 PM 35.6 °F 25.9 °F 26.6 °F 70% 30.02 in 10.0 mi West 16.1 mph - N/A   Clear
2:30 PM 37.4 °F 28.2 °F 26.6 °F 65% 30.02 in 10.0 mi West 16.1 mph 19.6 mph N/A   Clear
2:55 PM 39.2 °F 31.2 °F 24.8 °F 56% 30.00 in 10.0 mi NW 13.8 mph 21.9 mph N/A   Clear
3:10 PM 41.0 °F 32.8 °F 23.0 °F 49% 30.00 in 10.0 mi NW 16.1 mph 24.2 mph N/A   Clear
3:35 PM 41.0 °F 32.5 °F 19.4 °F 42% 30.00 in 10.0 mi NW 17.3 mph 23.0 mph N/A   Clear
3:55 PM 41.0 °F 33.9 °F 21.2 °F 45% 30.00 in 10.0 mi NW 12.7 mph 18.4 mph N/A   Clear
4:15 PM 41.0 °F 32.5 °F 21.2 °F 45% 30.00 in 10.0 mi NW 17.3 mph 23.0 mph N/A   Clear
4:35 PM 41.0 °F 33.5 °F 19.4 °F 42% 30.00 in 10.0 mi NNW 13.8 mph - N/A   Clear
4:55 PM 39.2 °F 31.2 °F 19.4 °F 45% 30.00 in 10.0 mi NW 13.8 mph 19.6 mph N/A   Clear
5:15 PM 39.2 °F 31.2 °F 19.4 °F 45% 29.99 in 10.0 mi NW 13.8 mph - N/A   Clear
5:35 PM 37.4 °F 29.3 °F 15.8 °F 41% 29.99 in 10.0 mi NNW 12.7 mph - N/A   Clear
5:55 PM 35.6 °F 29.9 °F 17.6 °F 48% 29.99 in 10.0 mi NNW 6.9 mph - N/A   Clear
6:15 PM 33.8 °F - 19.4 °F 56% 29.99 in 10.0 mi Calm Calm - N/A   Clear
6:35 PM 32.0 °F - 17.6 °F 55% 29.99 in 10.0 mi Calm Calm - N/A   Clear
6:55 PM 32.0 °F - 19.4 °F 60% 29.99 in 10.0 mi Calm Calm - N/A   Clear
7:10 PM 30.2 °F 25.4 °F 19.4 °F 64% 30.00 in 10.0 mi West 4.6 mph - N/A   Clear
7:35 PM 26.6 °F 20.0 °F 21.2 °F 80% 30.00 in 10.0 mi WNW 5.8 mph - N/A   Clear
7:55 PM 26.6 °F 17.5 °F 21.2 °F 80% 30.01 in 10.0 mi WNW 9.2 mph - N/A   Clear
8:15 PM 26.6 °F 17.5 °F 21.2 °F 80% 30.01 in 10.0 mi WNW 9.2 mph - N/A   Clear
8:30 PM 24.8 °F 15.3 °F 19.4 °F 80% 30.01 in 10.0 mi WNW 9.2 mph - N/A   Clear
8:55 PM 24.8 °F 16.1 °F 19.4 °F 80% 30.01 in 10.0 mi West 8.1 mph - N/A   Clear
9:15 PM 21.2 °F 11.7 °F 19.4 °F 93% 30.02 in 10.0 mi West 8.1 mph - N/A   Clear
9:35 PM 23.0 °F 13.1 °F 19.4 °F 86% 30.02 in 10.0 mi WNW 9.2 mph - N/A   Clear
9:55 PM 21.2 °F 12.6 °F 17.6 °F 86% 30.03 in 10.0 mi WSW 6.9 mph - N/A   Clear
10:15 PM 21.2 °F 14.9 °F 17.6 °F 86% 30.02 in 10.0 mi West 4.6 mph - N/A   Clear
10:35 PM 21.2 °F 13.6 °F 19.4 °F 93% 30.02 in 10.0 mi West 5.8 mph - N/A   Clear
10:55 PM 21.2 °F 12.6 °F 17.6 °F 86% 30.02 in 10.0 mi West 6.9 mph - N/A   Clear
11:15 PM 21.2 °F 10.1 °F 19.4 °F 93% 30.01 in 10.0 mi West 10.4 mph - N/A   Clear
11:35 PM 21.2 °F 11.7 °F 17.6 °F 86% 30.01 in 10.0 mi WSW 8.1 mph - N/A   Clear
11:55 PM 19.4 °F 9.5 °F 17.6 °F 93% 30.01 in 10.0 mi West 8.1 mph - N/A   Clear